When you browse on this site, cookies collect data to enhance your experience and personalize the content and advertising you see.
Visit our Privacy Policy to learn more. By continuing to use the site, you agree to this use of cookies and data.
  • In Netherlands
  • List of Countries
  • For 7 days
  • Water Temperature
  • Weather Map
  • Weather Widgets
  • user-avatar
    Login

    Hourly Weather Cambridge

    Today, 26 May, Tuesday

    Time Temperature Precipitation Wind Pressure Humidity
    00:00 +14°C° 0 mm 2 mps 774 mmHg 93%
    01:00 +13°C° 0 mm 2 mps 774 mmHg 93%
    02:00 +13°C° 0 mm 2 mps 774 mmHg 93%
    03:00 +12°C° 0 mm 1 mps 774 mmHg 92%
    04:00 +13°C° 0 mm 1 mps 774 mmHg 90%
    05:00 +13°C° 0 mm 1 mps 774 mmHg 88%
    06:00 +14°C° 0 mm 1 mps 775 mmHg 86%
    07:00 +15°C° 0 mm 2 mps 775 mmHg 80%
    08:00 +17°C° 0 mm 2 mps 775 mmHg 73%
    09:00 +18°C° 0 mm 2 mps 775 mmHg 67%
    10:00 +19°C° 0 mm 2 mps 775 mmHg 63%
    11:00 +20°C° 0 mm 2 mps 775 mmHg 59%
    12:00 +21°C° 0 mm 2 mps 775 mmHg 56%
    13:00 +21°C° 0 mm 2 mps 775 mmHg 57%
    14:00 +21°C° 0 mm 2 mps 775 mmHg 59%
    15:00 +23°C° 0 mm 2 mps 775 mmHg 60%
    16:00 +21°C° 0 mm 2 mps 775 mmHg 66%
    17:00 +21°C° 0 mm 2 mps 775 mmHg 71%
    18:00 +22°C° 0 mm 1 mps 774 mmHg 76%
    19:00 +20°C° 0 mm 1 mps 775 mmHg 79%
    20:00 +19°C° 0 mm 1 mps 775 mmHg 83%
    21:00 +16°C° 0 mm 1 mps 775 mmHg 86%
    22:00 +16°C° 0 mm 1 mps 775 mmHg 87%
    23:00 +15°C° 0 mm 1 mps 775 mmHg 87%

    Tomorrow, 27 May, Wednesday

    Time Temperature Precipitation Wind Pressure Humidity
    00:00 +14°C° 0 mm 1 mps 775 mmHg 88%
    01:00 +14°C° 0 mm 1 mps 775 mmHg 89%
    02:00 +13°C° 0 mm 1 mps 775 mmHg 90%
    03:00 +13°C° 0 mm 1 mps 775 mmHg 91%
    04:00 +13°C° 0 mm 1 mps 775 mmHg 90%
    05:00 +14°C° 0 mm 1 mps 775 mmHg 89%
    06:00 +14°C° 0 mm 1 mps 775 mmHg 88%
    07:00 +16°C° 0 mm 1 mps 775 mmHg 84%
    08:00 +18°C° 0 mm 1 mps 776 mmHg 80%
    09:00 +19°C° 0 mm 1 mps 776 mmHg 76%
    10:00 +19°C° 0.1 mm 2 mps 776 mmHg 73%
    11:00 +20°C° 0.1 mm 2 mps 775 mmHg 70%
    12:00 +20°C° 0.1 mm 2 mps 775 mmHg 66%
    13:00 +20°C° 0.1 mm 2 mps 775 mmHg 68%
    14:00 +20°C° 0.1 mm 3 mps 775 mmHg 70%
    15:00 +20°C° 0.1 mm 3 mps 775 mmHg 72%
    16:00 +19°C° 0.1 mm 3 mps 775 mmHg 75%
    17:00 +18°C° 0.1 mm 3 mps 775 mmHg 78%
    18:00 +17°C° 0.1 mm 3 mps 775 mmHg 80%
    19:00 +16°C° 0 mm 3 mps 775 mmHg 84%
    20:00 +13°C° 0 mm 3 mps 775 mmHg 88%
    21:00 +12°C° 0 mm 2 mps 776 mmHg 92%
    22:00 +10°C° 0 mm 2 mps 776 mmHg 92%
    23:00 +9°C° 0 mm 2 mps 776 mmHg 92%

    Day after tomorrow, 28 May, Thursday

    Time Temperature Precipitation Wind Pressure Humidity
    00:00 +9°C° 0 mm 2 mps 776 mmHg 92%
    01:00 +8°C° 0 mm 2 mps 776 mmHg 91%
    02:00 +8°C° 0 mm 2 mps 775 mmHg 91%
    03:00 +7°C° 0 mm 2 mps 775 mmHg 90%
    04:00 +8°C° 0 mm 2 mps 775 mmHg 88%
    05:00 +9°C° 0 mm 2 mps 775 mmHg 86%
    06:00 +10°C° 0 mm 2 mps 775 mmHg 84%
    07:00 +12°C° 0 mm 3 mps 775 mmHg 77%
    08:00 +14°C° 0 mm 3 mps 775 mmHg 71%
    09:00 +16°C° 0 mm 3 mps 775 mmHg 64%
    10:00 +17°C° 0 mm 3 mps 775 mmHg 62%
    11:00 +18°C° 0 mm 3 mps 775 mmHg 59%
    12:00 +19°C° 0 mm 3 mps 774 mmHg 57%
    13:00 +19°C° 0 mm 3 mps 774 mmHg 57%
    14:00 +19°C° 0 mm 3 mps 774 mmHg 58%
    15:00 +19°C° 0 mm 4 mps 773 mmHg 58%
    16:00 +18°C° 0 mm 4 mps 773 mmHg 62%
    17:00 +17°C° 0 mm 4 mps 773 mmHg 66%
    18:00 +17°C° 0 mm 4 mps 773 mmHg 71%
    19:00 +13°C° 0 mm 4 mps 773 mmHg 76%
    20:00 +11°C° 0 mm 3 mps 773 mmHg 81%
    21:00 +9°C° 0 mm 3 mps 773 mmHg 86%
    22:00 +8°C° 0 mm 3 mps 773 mmHg 88%
    23:00 +8°C° 0 mm 3 mps 773 mmHg 89%

    29 May, Friday

    Time Temperature Precipitation Wind Pressure Humidity
    00:00 +7°C° 0 mm 2 mps 773 mmHg 90%
    01:00 +7°C° 0 mm 2 mps 772 mmHg 91%
    02:00 +6°C° 0 mm 2 mps 772 mmHg 92%
    03:00 +6°C° 0 mm 2 mps 772 mmHg 93%
    04:00 +7°C° 0 mm 2 mps 772 mmHg 90%
    05:00 +9°C° 0 mm 3 mps 771 mmHg 86%
    06:00 +10°C° 0 mm 3 mps 771 mmHg 83%
    07:00 +12°C° 0 mm 3 mps 771 mmHg 76%
    08:00 +14°C° 0 mm 3 mps 771 mmHg 69%
    09:00 +17°C° 0 mm 3 mps 771 mmHg 62%
    10:00 +17°C° 0 mm 4 mps 770 mmHg 59%
    11:00 +18°C° 0 mm 4 mps 770 mmHg 56%
    12:00 +19°C° 0 mm 4 mps 770 mmHg 53%
    13:00 +19°C° 0 mm 4 mps 769 mmHg 52%
    14:00 +19°C° 0 mm 4 mps 769 mmHg 52%
    15:00 +19°C° 0 mm 4 mps 769 mmHg 51%
    16:00 +18°C° 0 mm 4 mps 769 mmHg 56%
    17:00 +17°C° 0 mm 3 mps 768 mmHg 60%
    18:00 +16°C° 0 mm 3 mps 768 mmHg 65%
    19:00 +13°C° 0 mm 3 mps 768 mmHg 71%
    20:00 +11°C° 0 mm 3 mps 768 mmHg 78%
    21:00 +9°C° 0 mm 3 mps 768 mmHg 84%
    22:00 +9°C° 0 mm 3 mps 768 mmHg 86%
    23:00 +9°C° 0 mm 2 mps 768 mmHg 88%

    30 May, Saturday

    Time Temperature Precipitation Wind Pressure Humidity
    00:00 +9°C° 0 mm 2 mps 768 mmHg 90%
    01:00 +9°C° 0 mm 2 mps 768 mmHg 90%
    02:00 +9°C° 0 mm 2 mps 768 mmHg 90%
    03:00 +9°C° 0 mm 2 mps 768 mmHg 90%
    04:00 +10°C° 0 mm 2 mps 768 mmHg 88%
    05:00 +12°C° 0 mm 2 mps 768 mmHg 85%
    06:00 +12°C° 0 mm 3 mps 768 mmHg 83%
    07:00 +14°C° 0 mm 3 mps 768 mmHg 78%
    08:00 +17°C° 0 mm 3 mps 768 mmHg 74%
    09:00 +18°C° 0 mm 3 mps 768 mmHg 69%
    10:00 +19°C° 0 mm 3 mps 768 mmHg 66%
    11:00 +20°C° 0 mm 3 mps 768 mmHg 63%
    12:00 +21°C° 0 mm 3 mps 767 mmHg 60%
    13:00 +21°C° 0 mm 3 mps 767 mmHg 60%
    14:00 +21°C° 0 mm 3 mps 767 mmHg 60%
    15:00 +21°C° 0 mm 3 mps 767 mmHg 60%
    16:00 +20°C° 0 mm 3 mps 766 mmHg 65%
    17:00 +19°C° 0 mm 3 mps 766 mmHg 70%
    18:00 +18°C° 0 mm 3 mps 766 mmHg 75%
    19:00 +16°C° 0 mm 3 mps 766 mmHg 81%
    20:00 +13°C° 0 mm 3 mps 766 mmHg 87%
    21:00 +11°C° 0 mm 3 mps 766 mmHg 93%
    22:00 +10°C° 0 mm 2 mps 766 mmHg 94%
    23:00 +9°C° 0 mm 2 mps 766 mmHg 95%

    31 May, Sunday

    Time Temperature Precipitation Wind Pressure Humidity
    00:00 +9°C° 0 mm 2 mps 766 mmHg 95%
    01:00 +9°C° 0 mm 2 mps 766 mmHg 96%
    02:00 +9°C° 0 mm 2 mps 766 mmHg 96%
    03:00 +9°C° 0 mm 2 mps 766 mmHg 96%
    04:00 +10°C° 0 mm 2 mps 766 mmHg 95%
    05:00 +12°C° 0 mm 2 mps 766 mmHg 93%
    06:00 +13°C° 0 mm 2 mps 766 mmHg 92%
    07:00 +15°C° 0 mm 2 mps 766 mmHg 85%
    08:00 +17°C° 0 mm 3 mps 766 mmHg 79%
    09:00 +20°C° 0 mm 4 mps 766 mmHg 73%
    10:00 +20°C° 0 mm 4 mps 766 mmHg 70%
    11:00 +21°C° 0 mm 4 mps 765 mmHg 68%
    12:00 +21°C° 0 mm 4 mps 765 mmHg 66%
    13:00 +21°C° 0 mm 4 mps 765 mmHg 65%
    14:00 +21°C° 0 mm 4 mps 765 mmHg 64%
    15:00 +21°C° 0 mm 4 mps 764 mmHg 64%
    16:00 +20°C° 0 mm 4 mps 764 mmHg 67%
    17:00 +19°C° 0 mm 4 mps 764 mmHg 70%
    18:00 +19°C° 0 mm 3 mps 764 mmHg 73%
    19:00 +17°C° 0 mm 3 mps 764 mmHg 79%
    20:00 +14°C° 0 mm 3 mps 764 mmHg 84%
    21:00 +11°C° 0 mm 3 mps 764 mmHg 90%
    22:00 +11°C° 0 mm 3 mps 764 mmHg 91%
    23:00 +12°C° 0 mm 2 mps 764 mmHg 92%
    Show more